GPS IIA-16

operational
NORAD ID: 23833 Int'l Des: 1996-019 Owner: AFSMC Country: US Constellation: GPS
MEOCIRCULARGNSS

Über GPS IIA-16

Beschreibung wird geladen...

Live-Position

3D-Globus wird geladen...

Nächste Überflüge

Höhenverlauf

Altitude vs Time

uPlot chart will show altitude changes over time

Zweizeiliger Elementsatz

1 23833U 96019A 26060.80447976 .00000007 00000-0 00000+0 0 9999
2 23833 52.8978 269.4451 0008949 23.8499 153.7923 1.94619617 80671
Epoch: 1. März 2026 • Age: 49 hours

Aktueller Status

Höhe 20712.0 km
Geschwindigkeit 3.84 km/s
Subsatellitenpunkt -23.01°S, 71.61°E
Startdatum 28. März 1996
Alter 29.9 years
Typ navigation

Technische Details

Klassifizierung Payload
Masse 860.00 kg
Trockenmasse 860.00 kg
Gesamtmasse 1881.00 kg
Länge 2.40 m
Durchmesser 1.80 m
Spannweite 5.30 m
Form Box + 2 Pan
Hersteller RWISB
Bus-Typ GPS
Phasenstatus In Orbit
Besitzer/Staat AFSMC/US

Große Konstellationen

Loading constellations...